Stanton, MN

1:58 AM CST on December 09, 2019 (GMT -0600)
Stanton

Weather History for KSYN - October, 2019

Change the Weather History Date:

Saturday, October 5, 2019

  Actual Average (WUND) Record (WUND)
Temperature  
Mean Temperature 52 °F -  
Max Temperature 58 °F - - (-1)
Min Temperature 47 °F - - (-1)
Degree Days  
Heating Degree Days 12    
Growing Degree Days 2 (Base 50)    
Moisture  
Dew Point 47 °F    
Average Humidity 86    
Maximum Humidity 94    
Minimum Humidity 73    
Precipitation  
Precipitation 1.04 in - - ()
Sea Level Pressure  
Sea Level Pressure 29.87 in    
Wind  
Wind Speed 10 mph ()    
Max Wind Speed 23 mph    
Max Gust Speed 32 mph    
Visibility 8.0 miles    
Events Rain , Thunderstorm    
Averages and records for this station are not official NWS values.
T = Trace of Precipitation, MM = Missing Value Source: Averaged Metar Reports

Daily Weather History Graph

Daily Weather History Graph

Search for Another Location

Airport or City:

Astronomy

Oct. 05, 2019 Rise Set
Actual Time 7:14 AM CDT 6:45 PM CDT
Civil Twilight 6:45 AM CDT 7:14 PM CDT
Nautical Twilight 6:11 AM CDT 7:48 PM CDT
Astronomical Twilight 5:37 AM CDT 8:22 PM CDT
Moon 2:53 PM CDT (10/5) 11:56 PM CDT (10/5)
Length of Visible Light 12h 29m
Length of Day
11h 31m
Waxing Crescent, 50% of the Moon is Illuminated
Oct 5
Waxing Crescent
Oct 13
Full
Oct 21
Last Quarter
Oct 27
New
Nov 4
First Quarter

Hourly Weather History & Observations

Time (CDT) Temp. Dew Point Humidity Pressure Visibility Wind Dir Wind Speed Gust Speed Precip Events Conditions
12:15 AM 47.3 °F 42.8 °F 84% 30.17 in 10.0 mi SE 8.1 mph - N/A   Mostly Cloudy
12:35 AM 47.5 °F 42.8 °F 84% 30.15 in 10.0 mi ESE 11.5 mph 17.3 mph N/A   Overcast
12:55 AM 47.7 °F 43.0 °F 84% 30.15 in 10.0 mi SE 8.1 mph - N/A   Overcast
1:15 AM 47.7 °F 43.0 °F 84% 30.14 in 10.0 mi ESE 9.2 mph 18.4 mph N/A   Overcast
1:16 AM 47.7 °F 43.0 °F 84% 30.14 in 10.0 mi ESE 8.1 mph 18.4 mph N/A   Overcast
1:35 AM 47.8 °F 43.2 °F 84% 30.13 in 10.0 mi ESE 9.2 mph - N/A   Overcast
1:36 AM 47.8 °F 43.2 °F 84% 30.14 in 10.0 mi SE 9.2 mph - N/A   Overcast
1:55 AM 48.2 °F 43.5 °F 84% 30.13 in 10.0 mi SE 6.9 mph - N/A   Overcast
1:56 AM 48.2 °F 43.5 °F 84% 30.14 in 10.0 mi SE 5.8 mph - N/A   Overcast
2:15 AM 48.2 °F 43.7 °F 84% 30.13 in 10.0 mi ESE 6.9 mph - N/A Rain Light Rain
2:16 AM 48.2 °F 43.7 °F 84% 30.13 in 10.0 mi SE 6.9 mph - N/A Rain Light Rain
2:35 AM 47.8 °F 44.4 °F 88% 30.10 in 10.0 mi ESE 9.2 mph - N/A Rain Light Rain
2:36 AM 47.8 °F 44.4 °F 88% 30.10 in 10.0 mi SE 9.2 mph - N/A Rain Light Rain
2:55 AM 48.2 °F 44.6 °F 87% 30.08 in 10.0 mi ESE 9.2 mph - N/A   Overcast
3:15 AM 48.4 °F 44.8 °F 87% 30.07 in 10.0 mi ESE 8.1 mph - N/A   Overcast
3:16 AM 48.4 °F 44.8 °F 87% 30.07 in 10.0 mi ESE 9.2 mph - N/A   Overcast
3:35 AM 48.6 °F 45.0 °F 87% 30.06 in 10.0 mi SE 10.4 mph 17.3 mph N/A   Overcast
3:55 AM 48.7 °F 45.1 °F 87% 30.04 in 10.0 mi ESE 9.2 mph - N/A Rain Rain
3:56 AM 48.6 °F 45.1 °F 88% 30.04 in 10.0 mi ESE 10.4 mph - N/A Rain Rain
4:15 AM 48.4 °F 45.5 °F 90% 30.03 in 7.0 mi SE 9.2 mph - 0.02 in Rain Rain
4:16 AM 48.4 °F 45.5 °F 90% 30.03 in 7.0 mi ESE 12.7 mph 16.1 mph 0.03 in Rain Rain
4:35 AM 48.4 °F 45.9 °F 91% 30.03 in 10.0 mi SE 11.5 mph - 0.06 in Rain Rain
4:36 AM 48.4 °F 45.9 °F 91% 30.03 in 10.0 mi SE 9.2 mph - 0.07 in Rain Light Rain
4:55 AM 48.4 °F 45.9 °F 91% 30.00 in 10.0 mi SE 11.5 mph - 0.08 in Rain Light Rain
5:15 AM 48.4 °F 46.0 °F 92% 30.00 in 10.0 mi SE 10.4 mph - 0.01 in Rain Rain
5:35 AM 48.4 °F 46.4 °F 93% 29.97 in 7.0 mi SE 10.4 mph 18.4 mph 0.06 in Rain , Thunderstorm Rain
6:15 AM 49.1 °F 46.4 °F 90% 29.98 in 7.0 mi SE 3.5 mph - 0.03 in Rain Rain
6:35 AM 49.1 °F 46.8 °F 92% 29.97 in 7.0 mi SE 9.2 mph - 0.08 in Rain Rain
6:55 AM 49.1 °F 46.8 °F 92% 29.96 in 5.0 mi SE 10.4 mph 17.3 mph 0.16 in Rain Heavy Rain
7:15 AM 49.1 °F 46.9 °F 92% 29.95 in 7.0 mi SE 8.1 mph - 0.03 in Rain , Thunderstorm Thunderstorms and Rain
7:16 AM 48.9 °F 46.9 °F 93% 29.95 in 7.0 mi SE 9.2 mph - 0.03 in Rain , Thunderstorm Thunderstorms and Rain
7:35 AM 48.7 °F 46.8 °F 93% 29.94 in 7.0 mi SE 9.2 mph - 0.08 in Rain Rain
7:36 AM 48.7 °F 46.8 °F 93% 29.94 in 7.0 mi SE 9.2 mph - 0.08 in Rain , Thunderstorm Thunderstorms and Rain
7:55 AM 49.1 °F 46.9 °F 92% 29.93 in 7.0 mi SSE 10.4 mph - 0.16 in Rain Heavy Rain
8:15 AM 49.1 °F 46.9 °F 92% 29.94 in 5.0 mi SSE 9.2 mph - 0.07 in Rain Heavy Rain
8:16 AM 49.1 °F 46.9 °F 92% 29.94 in 5.0 mi SSE 8.1 mph - 0.07 in Rain Heavy Rain
8:35 AM 49.3 °F 47.3 °F 93% 29.92 in 3.0 mi SE 5.8 mph 9.2 mph 0.18 in Rain , Thunderstorm Heavy Thunderstorms and Rain
8:55 AM 49.5 °F 47.5 °F 93% 29.90 in 3.0 mi SE 11.5 mph 16.1 mph 0.30 in Rain Heavy Rain
8:56 AM 49.5 °F 47.5 °F 93% 29.90 in 3.0 mi SE 11.5 mph 16.1 mph 0.31 in Rain Heavy Rain
9:15 AM 49.5 °F 47.3 °F 92% 29.87 in 3.0 mi SE 15.0 mph 20.7 mph 0.13 in Rain Heavy Rain
9:35 AM 49.1 °F 47.3 °F 93% 29.76 in 4.0 mi SE 23.0 mph 32.2 mph 0.23 in Rain Rain
9:55 AM 49.6 °F 47.1 °F 91% 29.84 in 10.0 mi SSE 11.5 mph 27.6 mph 0.26 in Rain Rain
10:15 AM 49.6 °F 46.9 °F 90% 29.82 in 10.0 mi SE 16.1 mph 25.3 mph 0.01 in   Overcast
10:16 AM 49.8 °F 46.9 °F 90% 29.82 in 10.0 mi SE 15.0 mph 25.3 mph 0.01 in   Overcast
10:35 AM 49.8 °F 46.9 °F 90% 29.82 in 10.0 mi SSE 17.3 mph 25.3 mph 0.01 in   Overcast
10:55 AM 50.2 °F 47.3 °F 90% 29.81 in 10.0 mi SSE 17.3 mph 28.8 mph 0.01 in   Overcast
10:56 AM 50.2 °F 47.3 °F 90% 29.81 in 7.0 mi SE 18.4 mph 28.8 mph 0.01 in   Overcast
11:15 AM 50.0 °F 47.7 °F 92% 29.80 in 2.5 mi SSE 15.0 mph 25.3 mph N/A Rain Light Rain
11:16 AM 50.0 °F 47.7 °F 92% 29.79 in 2.5 mi SSE 12.7 mph 25.3 mph N/A Rain Light Rain
11:35 AM 50.4 °F 48.2 °F 92% 29.78 in 3.0 mi SSE 12.7 mph 23.0 mph N/A   Overcast
11:55 AM 50.9 °F 48.6 °F 92% 29.78 in 3.0 mi SSE 17.3 mph 24.2 mph N/A   Light Drizzle
12:15 PM 51.1 °F 48.9 °F 92% 29.77 in 4.0 mi SSE 15.0 mph 24.2 mph N/A   Light Drizzle
12:16 PM 51.1 °F 48.9 °F 92% 29.77 in 3.0 mi SSE 13.8 mph 24.2 mph N/A   Light Drizzle
12:35 PM 51.4 °F 49.3 °F 92% 29.76 in 2.0 mi SSE 12.7 mph 23.0 mph N/A Rain Light Rain
12:55 PM 51.8 °F 49.8 °F 93% 29.75 in 2.0 mi SSE 15.0 mph 20.7 mph N/A Rain Light Rain
1:15 PM 52.0 °F 50.2 °F 94% 29.74 in 3.0 mi South 11.5 mph 18.4 mph N/A   Overcast
1:35 PM 52.7 °F 50.7 °F 93% 29.73 in 4.0 mi South 13.8 mph 24.2 mph N/A   Overcast
1:36 PM 52.7 °F 50.7 °F 93% 29.72 in 4.0 mi South 13.8 mph 24.2 mph N/A   Overcast
1:55 PM 52.9 °F 51.1 °F 94% 29.71 in 3.0 mi South 12.7 mph 20.7 mph N/A   Overcast
2:15 PM 53.6 °F 51.3 °F 92% 29.71 in 5.0 mi South 12.7 mph 19.6 mph N/A   Overcast
2:16 PM 53.6 °F 51.3 °F 92% 29.71 in 5.0 mi South 10.4 mph 19.6 mph N/A   Overcast
2:35 PM 53.6 °F 51.6 °F 93% 29.71 in 3.0 mi South 12.7 mph 17.3 mph N/A   Overcast
2:55 PM 53.8 °F 51.8 °F 93% 29.69 in 7.0 mi South 13.8 mph 21.9 mph N/A   Overcast
2:56 PM 54.0 °F 51.8 °F 92% 29.68 in 7.0 mi South 13.8 mph 21.9 mph N/A   Overcast
3:15 PM 54.5 °F 52.0 °F 91% 29.70 in 10.0 mi South 11.5 mph 21.9 mph N/A   Overcast
3:35 PM 54.5 °F 52.5 °F 93% 29.69 in 3.0 mi South 10.4 mph 17.3 mph N/A   Overcast
3:55 PM 54.9 °F 53.1 °F 94% 29.69 in 3.0 mi SSW 11.5 mph 16.1 mph N/A   Overcast
3:56 PM 54.9 °F 53.1 °F 94% 29.70 in 4.0 mi SSW 11.5 mph 16.1 mph N/A   Overcast
4:15 PM 55.9 °F 53.6 °F 92% 29.69 in 10.0 mi SSW 10.4 mph 17.3 mph N/A   Overcast
4:35 PM 57.2 °F 54.5 °F 91% 29.68 in 10.0 mi SSW 9.2 mph 16.1 mph N/A   Overcast
4:36 PM 57.2 °F 54.5 °F 91% 29.68 in 10.0 mi South 8.1 mph 16.1 mph N/A   Overcast
4:55 PM 57.2 °F 54.7 °F 91% 29.69 in 10.0 mi SSW 9.2 mph 17.3 mph N/A   Overcast
5:15 PM 58.1 °F 52.0 °F 80% 29.70 in 10.0 mi WSW 17.3 mph 28.8 mph N/A   Overcast
5:16 PM 58.1 °F 51.8 °F 80% 29.70 in 10.0 mi WSW 18.4 mph 28.8 mph N/A   Overcast
5:35 PM 57.0 °F 50.2 °F 78% 29.73 in 10.0 mi WSW 13.8 mph 28.8 mph N/A   Overcast
5:55 PM 55.9 °F 48.4 °F 76% 29.73 in 10.0 mi WSW 10.4 mph 17.3 mph N/A   Overcast
5:56 PM 55.9 °F 48.4 °F 76% 29.73 in 10.0 mi SW 10.4 mph 17.3 mph N/A   Overcast
6:15 PM 55.4 °F 48.2 °F 77% 29.73 in 10.0 mi SW 13.8 mph - N/A   Overcast
6:16 PM 55.4 °F 48.2 °F 77% 29.73 in 10.0 mi SW 13.8 mph - N/A   Overcast
6:35 PM 54.9 °F 47.8 °F 77% 29.73 in 10.0 mi SW 13.8 mph 18.4 mph N/A   Overcast
6:55 PM 54.9 °F 46.6 °F 74% 29.74 in 10.0 mi WSW 16.1 mph 23.0 mph N/A   Overcast
7:15 PM 54.9 °F 46.4 °F 73% 29.76 in 10.0 mi West 13.8 mph 24.2 mph N/A   Overcast
7:35 PM 54.7 °F 46.4 °F 74% 29.76 in 10.0 mi WSW 10.4 mph 21.9 mph N/A   Overcast
7:55 PM 54.7 °F 46.2 °F 73% 29.77 in 10.0 mi West 16.1 mph 21.9 mph N/A   Overcast
7:56 PM 54.5 °F 46.0 °F 73% 29.77 in 10.0 mi WSW 17.3 mph 21.9 mph N/A   Overcast
8:15 PM 53.6 °F 45.5 °F 74% 29.78 in 10.0 mi West 16.1 mph 26.5 mph N/A   Mostly Cloudy
8:35 PM 52.7 °F 45.5 °F 76% 29.79 in 10.0 mi WSW 13.8 mph 17.3 mph N/A   Mostly Cloudy
8:36 PM 52.7 °F 45.5 °F 76% 29.79 in 10.0 mi WSW 13.8 mph 17.3 mph N/A   Mostly Cloudy
8:55 PM 53.1 °F 45.5 °F 75% 29.80 in 10.0 mi West 9.2 mph - N/A   Mostly Cloudy
8:56 PM 53.1 °F 45.5 °F 75% 29.80 in 10.0 mi West 10.4 mph - N/A   Mostly Cloudy
9:15 PM 52.9 °F 45.7 °F 77% 29.80 in 10.0 mi West 15.0 mph 23.0 mph N/A   Overcast
9:35 PM 52.2 °F 45.5 °F 78% 29.81 in 10.0 mi West 16.1 mph 21.9 mph N/A   Overcast
9:55 PM 51.8 °F 45.0 °F 77% 29.82 in 10.0 mi WSW 9.2 mph - N/A   Overcast
9:56 PM 51.8 °F 45.0 °F 77% 29.82 in 10.0 mi WSW 10.4 mph - N/A   Overcast
10:15 PM 50.9 °F 45.0 °F 80% 29.83 in 10.0 mi WSW 9.2 mph - N/A   Mostly Cloudy
10:16 PM 50.9 °F 45.0 °F 80% 29.83 in 10.0 mi WSW 8.1 mph - N/A   Mostly Cloudy
10:35 PM 50.5 °F 44.8 °F 81% 29.84 in 10.0 mi WSW 10.4 mph - N/A   Mostly Cloudy
10:55 PM 50.4 °F 44.6 °F 81% 29.85 in 10.0 mi WSW 11.5 mph 16.1 mph N/A   Scattered Clouds
11:15 PM 50.0 °F 44.1 °F 80% 29.85 in 10.0 mi SW 9.2 mph - N/A   Scattered Clouds
11:35 PM 49.5 °F 44.4 °F 83% 29.86 in 10.0 mi SW 8.1 mph - N/A   Mostly Cloudy
11:36 PM 49.5 °F 44.4 °F 83% 29.86 in 10.0 mi SW 8.1 mph - N/A   Mostly Cloudy
11:55 PM 48.7 °F 44.1 °F 84% 29.86 in 10.0 mi SW 9.2 mph - N/A   Scattered Clouds